www.pogodaiklimat.ru

Погода и климат >> Архив погоды >> Кот-д'Ивуар >> Ганьоа


ПОГОДА в Ганьоа

  • Прогноз погоды в Ганьоа
  • Монитор погоды в Ганьоа

АРХИВ ПОГОДЫ в Ганьоа

Время (UTC), дата Ветер
(напр.,м/с)
 
Видим.   Явления Облачность Т
(С)
Тd
(С)
f
(%)
Тe
(С)
Тes
(С)
Комфортность P
(гПа)
Po
(гПа)
Тmin
(С)
Tmax
(С)
R
(мм)
R24
(мм)
S
(см)
12 11.06 Ю 2 10 км 8/8 400 м
[Cu med, cong]
+27.2 +24.1 83 +38 +42 очень
душно
1013.3 990.4
18 11.06 штиль 0 10 км 5/5 400 м
[Cb cap]
+28.0 +23.7 77 +38 +39 очень
душно
1010.3 987.5 +30.5
00 12.06 штиль 0 8000 м 4/4 400 м
[Sc]
+23.5 +22.8 96 +31 +31 очень
душно
1012.9 989.7
06 12.06 штиль 0 4000 м дымка 9/9 400 м
[Sc]
+23.0 +22.3 96 +31 +31 очень
душно
1013.1 989.9 +22.5
12 12.06 З 3 10 км 8/8 400 м
[Cu med, cong]
+27.0 +24.1 84 +37 +41 очень
душно
1013.9 991.0
18 12.06 Ю 4 10 км 4/4 400 м
[Cb calv]
+29.8 +23.2 68 +40 +40 очень
душно
1011.1 988.4 +31.0
00 13.06 штиль 0 8000 м 3/3 400 м
[Sc]
+24.0 +22.5 91 +31 +31 очень
душно
1014.5 991.3
06 13.06 штиль 0 8000 м 3/3 330 м
[Sc]
+22.0 +21.2 95 +28 +28 душно 1014.7 991.3 +21.5
12 13.06 штиль 0 10 км 9/9 400 м
[Cu med, cong]
+29.1 +22.3 67 +38 +41 очень
душно
1014.9 992.1
18 13.06 штиль 0 10 км 5/5 400 м
[Cu med, cong]
+30.7 +22.5 62 +40 +40 очень
душно
1011.3 988.5 +31.7
21 13.06 штиль 0 8000 м ясно +26.5 +23.6 84 +36 +36 очень
душно
1013.2 990.2
00 14.06 штиль 0 8000 м ясно +24.0 +22.5 91 +31 +31 очень
душно
1014.5 991.3
03 14.06 З 2 8000 м ясно +23.0 +22.3 96 +31 +31 очень
душно
1013.0 989.7
06 14.06 штиль 0 8000 м ясно +22.5 +21.8 96 +30 +30 очень
душно
1013.5 990.2 +22.0
09 14.06 З 3 8000 м 9/9 400 м
[Sc]
+26.1 +23.7 87 +36 +36 очень
душно
1014.4 991.4
12 14.06 З 3 10 км 10/10 400 м
[Cu med, cong]
+29.4 +23.5 71 +40 +40 очень
душно
1013.8 991.0
15 14.06 З 2 10 км 9/9 400 м
[Cu med, cong]
+30.0 +23.6 69 +41 +42 опасность
перегрева
1011.0 988.3
18 14.06 ЮЗ 2 10 км 8/8 400 м
[Cu med, cong]
+28.9 +24.1 75 +40 +40 очень
душно
1009.9 987.2 +31.5
21 14.06 ЮВ 2 10 км 9/9 400 м
[Sc]
+25.7 +24.3 92 +36 +36 очень
душно
1013.9 990.9
00 15.06 штиль 0 6000 м гроза, ливневой дождь 9/9 400 м
[Cb cap]
+23.0 +22.6 98 +32 +32 очень
душно
1013.4 990.1 18
03 15.06 штиль 0 8000 м зарница {гроза, дождь} 9/4 400 м
[Cb cap Ac As]
+22.3 +22.2 99 +30 +30 очень
душно
1012.1 988.8
06 15.06 С 2 4000 м дымка {гроза, дождь} 9/6 400 м
[Sc Ac As]
+23.6 +23.6 100 +32 +32 очень
душно
1012.1 988.9 +21.9 18
09 15.06 З 2 8000 м 10/10 400 м
[Sc]
+25.4 +24.1 93 +35 +35 очень
душно
1013.9 990.8
12 15.06 ЮЗ 3 10 км 9/9 400 м
[Cu med, cong]
+29.0 +24.8 78 +41 +43 опасность
перегрева
1013.1 990.3
15 15.06 Ю 3 10 км 8/8 400 м
[Cb calv]
+30.5 +24.8 72 +44 +46 опасность
перегрева
1011.0 988.4
18 15.06 ЮЗ 2 10 км в посл. час дождь 9/9 400 м
[Cu med, cong]
+26.2 +24.3 89 +36 +36 очень
душно
1012.5 989.5 +31.0 0.6
21 15.06 ЮЗ 2 10 км 8/8 400 м
[Cu med, cong]
+25.0 +24.0 94 +34 +34 очень
душно
1014.7 991.6
00 16.06 З 2 8000 м 8/8 400 м
[Sc]
+24.5 +23.6 95 +33 +33 очень
душно
1015.2 992.0
06 16.06 штиль 0 800 м туман 6/6 400 м
[Sc]
+23.0 +23.0 100 +32 +32 очень
душно
1013.7 990.4 +22.5 0.6
09 16.06 З 2 8000 м {туман} 8/8 400 м
[Cu med, cong Ac trans]
+26.3 +23.9 87 +36 +38 очень
душно
1014.4 991.4
12 16.06 ЮЗ 2 10 км {туман} 9/9 400 м
[Cu med, cong]
+30.0 +24.4 72 +42 +44 опасность
перегрева
1013.8 991.2
15 16.06 ЮЗ 2 10 км 8/8 400 м
[Cu med, cong]
+31.7 +23.6 62 +43 +45 опасность
перегрева
1011.2 988.6
18 16.06 ЮЗ 2 10 км гроза без осадков 10/10 400 м
[Cb cap]
+27.0 +24.4 86 +38 +38 очень
душно
1011.6 988.7 +32.0 0.1
21 16.06 ЮЗ 4 10 км зарница {гроза} 10/10 400 м
[Cb cap]
+25.5 +24.1 92 +35 +35 очень
душно
1014.3 991.2
00 17.06 штиль 0 10 км {гроза} 8/3 400 м
[Sc Ac trans]
+24.4 +23.2 93 +33 +33 очень
душно
1014.0 990.8
03 17.06 штиль 0 4000 м дымка 8/6 400 м
[Sc Ac trans]
+23.6 +23.5 99 +32 +32 очень
душно
1012.0 988.8
06 17.06 ЮЗ 2 4000 м дымка 9/5 400 м
[Sc Ac As]
+23.8 +23.4 98 +32 +32 очень
душно
1013.5 990.2 +23.2 0.1
09 17.06 ЮЗ 2 8000 м 9/8 400 м
[Cu med, cong Ac trans]
+26.7 +24.3 87 +37 +39 очень
душно
1014.7 991.7
15 17.06 ЮВ 2 10 км 6/6 400 м
[Cu med, cong]
+32.4 +23.8 61 +44 +49 опасность
перегрева
1010.6 988.1
18 17.06 Ю 4 6000 м дождь 9/9 400 м
[Cb cap]
+29.1 +24.7 77 +41 +41 опасность
перегрева
1010.8 988.1 +33.1 0.2
21 17.06 Ю 12 8000 м {дождь} ясно +25.5 +24.2 93 +35 +35 очень
душно
1012.9 989.9
00 18.06 штиль 0 8000 м {дождь} 8/8 400 м
[Sc]
+24.0 +23.4 96 +32 +32 очень
душно
1014.3 991.1 9
03 18.06 штиль 0 8000 м 9/9 400 м
[Sc]
+24.0 +23.4 96 +32 +32 очень
душно
1013.4 990.2
06 18.06 штиль 0 4000 м дымка 9/9 400 м
[Sc]
+23.6 +23.5 99 +32 +32 очень
душно
1013.7 990.5 +23.0 9

 

Местоположение метеостанции Ганьоа (Кот-д'Ивуар): широта 6.13 долгота -5.95 высота над уровнем моря 210 м.

В архиве по умолчанию представлена погода в Ганьоа за последнюю неделю. Архивные данные за месяц целиком и за предыдущие месяцы, начиная с января 2011 года, Вы можете получить, выбрав интересующий диапазон дат из раскрывающегося списка и нажав кнопку "Ввод!".


*Определитесь, кто Вы:
робот инопланетянин человек

Внимание! Время в таблицах - всемирное. Для получения местного времени необходимо прибавить поправку, которая равна 0 ч.

Смотрите также архив погоды в соседних городах и на ближайших метеорологических станциях:

Погода в Далоа (Кот-д'Ивуар) (100 км)
Погода в Ямусукро (Кот-д'Ивуар) (108 км)
Погода в Сассандре (Кот-д'Ивуар) (132 км)
Погода в Димбокро (Кот-д'Ивуар) (150 км)
Погода в Сан-Педро (Кот-д'Ивуар) (172 км)
Погода в Буаке (Кот-д'Ивуар) (203 км)
Погода в Мане (Кот-д'Ивуар) (222 км)
Погода в Абиджане (Кот-д'Ивуар) (244 км)
Погода в Табу (Кот-д'Ивуар) (247 км)
Погода в Адиаке (Кот-д'Ивуар) (307 км)

Пояснения к столбцам:

Ветер - указаны скорость ветра в м/с - средняя за 10 мин, порывы в срок и между сроками (в фигурных скобках) и направление, откуда дует ветер: С - северный, СВ - северо-восточный, В - восточный, ЮВ - юго-восточный, Ю - южный, ЮЗ - юго-западный, З - западный, СЗ - северо-западный.
Видимость - горизонтальная дальность видимости в метрах или километрах. При видимости от 1 до 10 км при отсутствии осадков обычно наблюдается дымка, при ухудшении видимости до 1 км и менее - туман. В сухую погоду видимость может ухудшаться дымом, пылью или мглою.
Явления - указаны атмосферные явления, наблюдавшиеся в срок или в последний час перед сроком; фигурными скобками обозначены явления, наблюдавшиеся между сроками (за 1-3 часа до срока); квадратными скобками обозначены град или гололедные отложения с указанием их диаметра в мм.
Облачность - указаны через наклонную черту общая и нижняя облачность в баллах и высота нижней границы облаков в метрах; квадратными скобками обозначены формы облаков: Ci - перистые, Cs - перисто-слоистые, Cc - перисто-кучевые, Ac - высококучевые, As - высокослоистые, Sc - слоисто-кучевые, Ns - слоисто-дождевые, Cu - кучевые, Cb - кучево-дождевые. Подробнее классификацию облаков см. в Атласе облаков (PDF).
T - Температура воздуха - температура, измеренная на высоте 2 м над землей.
Td - Температура точки росы - температура, при понижении до которой содержащийся в воздухе водяной пар достигнет насыщения.
f - Относительная влажность воздуха - влажноcть воздуха, измеренная на высоте 2 м над землей.
Te - Эффективная температура - температура, которую ощущает одетый по сезону человек в тени. Характеристика душности погоды. При расчете учитывается влияние влажности воздуха и скорости ветра на теплоощущения человека.
Tes - Эффективная температура на солнце - температура, которую ощущает человек, с поправкой на солнечный нагрев. Характеристика знойности погоды. Зависит от высоты солнца над горизонтом, облачности и скорости ветра. Ночью, в пасмурную погоду, а также при ветре 12 м/с и более поправка равна нулю.
P - Атмосферное давление - приведенное к уровню моря атмосферное давление.
Po - Атмосферное давление - измеренное на уровне метеостанции атмосферное давление.
Tmin - Минимальная температура - минимум температуры воздуха на высоте 2 м над землей.
Tmax - Максимальная температура - максимум температуры воздуха на высоте 2 м над землей.
R - Количество осадков - Количество выпавших осадков за период времени, мм. При наведении курсора мыши на число - период времени, за который выпало указанное количество осадков.
R24 - Количество осадков - Количество выпавших осадков за 24 часа, мм.
S - Снежный покров - Высота снежного покрова, см. При наведении курсора мыши на число - состояние снежного покрова и степень покрытия местности в баллах.